User: anonymous   Login
Location: Beuvrequen
(50.8014°N, 1.6652°E)
Time: 03:09:56
(UTC+00:00)
Language:

SME Rocket - Orbit

View from above orbital plane
View from above orbital plane
View from above satellite
View from above satellite

Ground track
Ground track

The orbit data is extracted from the following two-line orbital elements,

1 12889U 81100C   22019.41869101  .00000155  00000-0  10028-3 0  9997
2 12889  99.8727 172.3958 1315810 273.0770 132.5233 12.18112098785194
Epoch (UTC): 19 January 2022 10:02:54
Eccentricity: 0.1315810
inclination: 99.8727°
perigee height: 551 km
apogee height: 2650 km
right ascension of ascending node: 172.3958°
argument of perigee: 273.0770°
revolutions per day: 12.18112098
mean anomaly at epoch: 132.5233°
orbit number at epoch: 78519

The dashed part of the orbit path shows where the satellite is in the earth's shadow,  

DLR